Regional Weather Roundup
Issued by NWS

Home | Current Version | Previous Version | Text Only | Print | Product List | Glossary On
Versions: 1 2 3 4 5 6 7 8 9 10 11 12 13 14 15 16 17 18 19 20 21 22 23 24 25 26 27 28 29 30 31 32 33 34 35 36 37 38 39 40 41 42 43 44 45 46 47 48 49 50
000
ASUS45 KPSR 181910
RWRAZ

ARIZONA REGIONAL HOURLY WEATHER ROUNDUP
NATIONAL WEATHER SERVICE PHOENIX AZ
1200 PM MST FRI APR 18 2014

NOTE: FAIR INDICATES FEW OR NO CLOUDS BELOW 12,000 FEET WITH NO
SIGNIFICANT WEATHER AND/OR OBSTRUCTIONS TO VISIBILITY.

AZZ001>003-036-182000-
NORTHWEST ARIZONA

CITY           SKY/WX    TMP DP  RH WIND       PRES   REMARKS
BULLHEAD CITY  CLOUDY    81  34  18 S18G24    29.86F
KINGMAN        CLOUDY    72  26  18 CALM      29.96F
$$

AZZ004>008-015-016-018-182000-
NORTH CENTRAL ARIZONA

CITY           SKY/WX    TMP DP  RH WIND       PRES   REMARKS
GRAND CANYON   CLOUDY    58  21  24 S10       30.13S
WILLIAMS       CLOUDY    59  27  29 SE17G29   30.19S
PRESCOTT       CLOUDY    66  26  22 SW20G30   30.07R
FLAGSTAFF      CLOUDY    59  30  33 SW14G30   30.14F
PAYSON         PTSUNNY   66  32  28 S13G20    30.11F
PAGE           CLOUDY    71  21  15 VRB3      29.98F
$$

AZZ009>014-017-182000-
NORTHEAST ARIZONA

CITY           SKY/WX    TMP DP  RH WIND       PRES   REMARKS
WINSLOW        CLOUDY    67  24  19 S9        30.05F
SAINT JOHNS    CLOUDY    72  19  13 W13       30.05F
WINDOW ROCK    CLOUDY    72  16  12 SW15G24   30.11F
SHOW LOW       PTSUNNY   66  21  18 SW22G30   30.14F
$$

AZZ023-182000-
GREATER PHOENIX AREA

CITY           SKY/WX    TMP DP  RH WIND       PRES   REMARKS
PHOENIX        CLOUDY    78  42  27 S17G25    29.95R
BUCKEYE          N/A     82  37  20 S12G18    29.92F
GLENDALE       CLOUDY    82  36  18 SE12      29.94F
LUKE AFB       NOT AVBL
DEER VALLEY    CLOUDY    78  35  21 S13       29.95S
SCOTTSDALE     LGT RAIN  78  37  22 S10G21    29.98R
MESA-FALCON    PTSUNNY   77  37  24 S15G23    29.97R
MESA-GATEWAY   CLOUDY    79  39  24 SW7       29.98S
CHANDLER       CLOUDY    77  41  27 SE9       29.97R
$$

AZZ027-028-182000-
SOUTHWEST MARICOPA COUNTY AND PINAL COUNTY

CITY           SKY/WX    TMP DP  RH WIND       PRES   REMARKS
CASA GRANDE    CLOUDY    75  37  25 NW5       29.96F
GILA BEND      CLOUDY    82  36  18 SW12G26   29.89F
$$

AZZ503-504-507>509-182000-
SOUTHEAST ARIZONA

CITY           SKY/WX    TMP DP  RH WIND       PRES   REMARKS
TUCSON         CLOUDY    76  30  18 E5        30.02S
DAVIS-MONTHAN  CLOUDY    75  34  22 N1        30.00F
RYAN FIELD       N/A     77  30  18 S6        30.01R
NOGALES        LGT RAIN  66  38  35 NE8G25    30.06F
SIERRA VISTA   CLOUDY    66  37  34 SW17G26   30.10R
DOUGLAS        CLOUDY    72  35  25 VRB5      30.07S
SAFFORD        CLOUDY    75  25  15 MISG      30.02R
$$

AZZ020-021-025-026-031-182000-
SOUTHWEST ARIZONA

CITY           SKY/WX    TMP DP  RH WIND       PRES   REMARKS
YUMA           CLOUDY    84  39  20 SE22      29.83F
$$

CAZ031-033-041-043-047-048-061-182000-
SOUTHERN CALIFORNIA

CITY           SKY/WX    TMP DP  RH WIND       PRES   REMARKS
DOWNTOWN L.A.  MOSUNNY   69  50  50 NE5       29.91F
L.A. AIRPORT   PTSUNNY   69  49  48 E5        29.92F
SAN DIEGO      PTSUNNY   66  52  60 VRB7      29.94F
BURBANK        MOSUNNY   66  49  54 SE7       29.92S
ONTARIO        CLOUDY    68  49  50 VRB3      29.91F
RIVERSIDE      CLOUDY    68  51  54 SW5       29.92F
PALM SPRINGS   PTSUNNY   79  41  25 VRB6      29.87F
EL CENTRO NAS  PTSUNNY   79  54  41 NE10      29.83S
IMPERIAL       CLOUDY    79  57  46 VRB7      29.83S
BLYTHE         CLOUDY    79  44  28 MISG      29.86F
NEEDLES        CLOUDY    82  32  16 S10       29.87S
$$

NVZ020-UTZ003-182000-
SOUTHERN NEVADA-UTAH

CITY           SKY/WX    TMP DP  RH WIND       PRES   REMARKS
LAS VEGAS      CLOUDY    76  26  15 S16G23    29.84F
SALT LAKE CITY CLOUDY    61  40  45 NW16      29.96R
$$

NMZ009-TXZ055-182000-
NEW MEXICO-WEST TEXAS

CITY           SKY/WX    TMP DP  RH WIND       PRES   REMARKS
ALBUQUERQUE    PTSUNNY   70  26  19 S9        30.13F
EL PASO        CLOUDY    75  36  24 SE16      30.08F
$$


........................KEY........................
SKY/WX - SKY CONDITION/WEATHER
TMP    - TEMPERATURE IN FAHRENHEIT
DP     - DEW POINT IN FAHRENHEIT
RH     - RELATIVE HUMIDITY IN PERCENT
WIND   - DIRECTION AND SPEED IN MILES PER HOUR (MPH)
VRB    - VARIABLE WIND DIRECTION
PRES   - MEAN SEA LEVEL PRESSURE IN INCHES OF MERCURY
         F - FALLING PRESSURE   R - RISING PRESSURE
         S - STEADY PRESSURE
VSB    - VISIBILITY IN MILES
HX     - HEAT INDEX IN FAHRENHEIT
WCI    - WIND CHILL INDEX IN FAHRENHEIT
TC     - TEMPERATURE IN CELSIUS WHICH IS ALSO KNOWN AS
         TEMPERATURE IN CENTIGRADE
AFB    - AIR FORCE BASE
         LUKE AFB IS LUKE AIR FORCE BASE
         DAVIS-MONTHAN IS DAVIS-MONTHAN AIR FORCE BASE
NAS    - NAVAL AIR STATION
         EL CENTRO NAS IS EL CENTRO NAVAL AIR STATION
N/A    - NOT AVAILABLE



USA.gov is the U.S. government's official web portal to all federal, state and local government web resources and services.